Showing default

MALLIGYONG-1, 58400

Orbit data source: Space-Track

MALLIGYONG-1, 58400 is a payload satellite owned by Choson (KP) in SSO that was launched on Tue, 21 Nov 2023 UTC via a CHEONLIMA-1 launch vehicle from the Yunsong, Dprk (YUN). Payload-class satellites include a variety of spacecraft equipped with specific instruments for various scientific and technological missions. These include communications satellites like Starlink; space stations such as the ISS; scientific satellites like the Hubble; Earth observation satellites from companies like Planet Labs, Umbra, and HawkEye 360; GPS; miniature CubeSats for education and research; and military/defense satellites.

Loading next visibility...
Identifier
58400, 2023-179A
Orbit
SSO
Country
Flag of UnknownUnknown / NKOR
Related business
Manufacturer
Choson
Mission
Operational Defense Imaging
Bus & Motor
TD SATELLITE, Unknown motor
Mass
~200 kg wet, ~200 kg dry
Launch date (UTC)
2023-11-21 (2 years ago)
Launch vehicle
CHEONLIMA-1
Launch site
Yunsong, Dprk (YUN)
Object type
Payload
Rocket body
Debris
Shape & HBR
Box, 0.6 m
Radar Cross Section
1.280 m², Medium (>0.1 m² and < 1m²)

Expand to show TLE details & history
Last TLE update: 21 hours ago

TLE from 21 hours ago
0 MALLIGYONG-1
1 58400U 23179A   25341.12406838  .00006075  00000-0  27569-3 0  9996
2 58400  97.3255 222.9343 0008592 355.9375   4.1790 15.21130555113549
Epoch: 2025-12-07T02:58Z
TLE epoch observation values (Epoch: 2025-12-07T02:58:39.508Z)
Latitude
0.00003°
Longitude
102.12772°
Altitude
499.626 km
Speed
7.618 km/s
True Right ascension
14h 51m 44s
True Declination
0° 00' 00"
Sunlit
Object was in daylight at epoch
Visualization orbit readout
Latitude
Unknown
Longitude
Unknown
Altitude
Unknown
Speed
Unknown
Apparent Right ascension
Unknown
Apparent Declination
Unknown
Sunlit
N/A
Visualization observer readout
Local Sidereal Time
21:44:12
Azimuth
Unknown
Elevation
Unknown
Doppler factor
Unknown
Orbital elements
Apogee altitude
505.299 km
Perigee altitude
493.481 km
Semi-major axis
6,877.527 km
Eccentricity
0.00086
Inclination
97.3255°
RAAN
222.9343°
Arg. of periapsis
355.9375°
True anomaly
4.18618°
Mean anomaly
4.179°
Eccentric anomaly
4.18259°
Mean motion
3.80535 °/min
Orbital period
94.6 mins
BSTAR
0.00027569
Loading maneuver chart data...
Computing Atmospheric mass density...
Loading historical data...
Loading historical data...
Loading historical data...
Loading historical data...
Loading historical data...
Loading historical data...
Loading historical data...
Other satellites on launch #179 in the year 2023 (2023-11-21 UTC)

Documentation

Showing up to 5 results
|